Location: Godiavel Galaoual
(15.2485°N, 12.6604°W)
Time: 11:51:09
(UTC+00:00)

LightSail 2 - Pass Details

Date: 06 June 2020
Orbit: 692 x 720 km, 24.0° (Epoch: 14 July)

Event Time Altitude Azimuth Distance (km) Brightness Sun altitude
Rises 21:42:10 0° 248° (WSW) 3,045 8.8 -30.4°
Reaches altitude 10° 21:44:34 10° 248° (WSW) 2,130 7.9 -30.9°
Enters shadow 21:46:19 22° 247° (WSW) 1,490 7.0 -31.2°
